User: anonymous   Login
Location: Mentone
(34.5413°N, 85.5351°W)
Time: 17:21:34
(UTC-05:00)
Language:

UOSAT-12 - Orbit

View from above orbital plane
View from above orbital plane
View from above satellite
View from above satellite

Ground track
Ground track

The orbit data is extracted from the following two-line orbital elements,

1 25693U 99021A   16270.85509598  .00000287  00000-0  37189-4 0  9990
2 25693  64.5562 217.2343 0007614 322.0722  38.0335 14.80681035941173
Epoch (UTC): 26 September 2016 20:31:20
Eccentricity: 0.0007614
inclination: 64.5562°
perigee height: 622 km
apogee height: 632 km
right ascension of ascending node: 217.2343°
argument of perigee: 322.0722°
revolutions per day: 14.80681035
mean anomaly at epoch: 38.0335°
orbit number at epoch: 94117

The dashed part of the orbit path shows where the satellite is in the earth's shadow,  

DLR